Starlink 2161

operational
NORAD ID: 47747 Int'l Des: 2021-017 Owner: SPXS Country: US Constellation: starlink
LEOCIRCULARSTARLINK_TYPE

Über Starlink 2161

Beschreibung wird geladen...

Live-Position

3D-Globus wird geladen...

Nächste Überflüge

Höhenverlauf

Altitude vs Time

uPlot chart will show altitude changes over time

Zweizeiliger Elementsatz

1 47747U 21017AB 25348.87720496 .00002114 00000-0 16075-3 0 9995
2 47747 53.0528 222.3536 0001534 93.5832 266.5332 15.06398673265110
Epoch: 14. Dez. 2025 • Age: 24 hours

Aktueller Status

Höhe 554.6 km
Geschwindigkeit 7.58 km/s
Subsatellitenpunkt -23.76°S, 161.86°E
Startdatum 4. März 2021
Alter 4.7 years
Typ internet

Technische Details

Klassifizierung Payload
Masse 260.00 kg
Trockenmasse 248.00 kg
Gesamtmasse 260.00 kg
Länge 0.20 m
Durchmesser 2.80 m
Spannweite 9.00 m
Form Box + pan
Hersteller SPXS
Bus-Typ Starlink
Phasenstatus In Orbit
Besitzer/Staat SPXS/US

Große Konstellationen

Loading constellations...